Skip Page Navigation
NASA JPL Caltech
NASA Logo - Jet Propulsion Laboratory + View the NASA Portal
+ Center for Near-Earth Object Studies
JPL Home Earth Solar System Stars & Galaxies Technology
JPL Solar System Dynamics
BODIES ORBITS EPHEMERIDES TOOLS PHYSICAL DATA DISCOVERY FAQ SITE MAP
JPL Small-Body Database Browser
Search: [ help ]  
47655 (2000 CB48)
Classification: Main-belt Asteroid          SPK-ID: 2047655
Ephemeris | Orbit Diagram | Orbital Elements | Mission Design | Physical Parameters | Discovery Circumstances | Close-Approach Data ]

[ show orbit diagram ]
Orbital Elements at Epoch 2459200.5 (2020-Dec-17.0) TDB
Reference: JPL 30 (heliocentric ecliptic J2000)
 Element Value Uncertainty (1-sigma)   Units 
e .1798300438218417 3.647e-08  
a 3.092323458631598 2.0237e-08 au
q 2.536230795554569 1.1184e-07 au
i 17.08174578281159 3.8941e-06 deg
node 162.2169956695822 1.4171e-05 deg
peri 63.16097622635875 1.7464e-05 deg
M 245.9841828491452 1.1686e-05 deg
tp 2459829.554687427592
(2022-Sep-07.05468743)
6.7644e-05 TDB
period 1986.212905655918
5.44
1.9497e-05
5.338e-08
d
yr
n .1812494516448201 1.7792e-09 deg/d
Q 3.648416121708627 2.3876e-08 au
  Orbit Determination Parameters
   # obs. used (total)      1187  
   data-arc span      8096 days (22.17 yr)  
   first obs. used      1998-12-19  
   last obs. used      2021-02-17  
   planetary ephem.      DE441  
   SB-pert. ephem.      SB441-N16  
   condition code      0  
   norm. resid. RMS      .50476  
   source      ORB  
   producer      Otto Matic  
   solution date      2021-Apr-13 10:02:01  

Additional Information
 Earth MOID = 1.58087 au 
 Jupiter MOID = 1.52273 au 
 T_jup = 3.132 
[ show covariance matrix ]

Ephemeris | Orbit Diagram | Orbital Elements | Mission Design | Physical Parameters | Discovery Circumstances | Close-Approach Data ]

Physical Parameter Table
Parameter Symbol Value Units Sigma Reference Notes
absolute magnitude H 13.93   n/a MPCxxxxx  

47655 (2000 CB48)          Discovered 2000-Feb-02 by LINEAR at Socorro
Reference: 20020921/Numbers.arcLast Updated: 2004-04-19

[ hide close-approach data ]
Close-Approach Data   ...sorted by Date/Time (TDB)
Date/Time (TDB) Time Uncertainty
(days_HH:MM)
Body Nominal Distance (au) Minimum Distance (au) Maximum Distance (au) V-relative (km/s) V-infinity (km/s) JD (TDB) Time Uncertainty (minutes) Semi-major axis (km) Semi-minor axis (km) range-LOV angle (deg) N-sigma BP Orbit Ref. Reference Modified
1905-Nov-10 06:51 00:06 Jupiter 1.90426116491453 1.90425815288913 1.90426417709147 1.8843327353928 1.63128855616517 2417159.785179541 5.65108745226824 1107.24405616519 78.6580395704185 -53.3959963523566 1785717.94225374 T 30 CATAB v2.0f-lin.ifort 2021-Apr-13 10:02:05 2021-Apr-13 10:02
1915-Sep-11 23:09 00:03 Jupiter 1.61102457474862 1.61102274726968 1.61102640227289 4.53437109436765 4.41689806544852 2420752.464386085 2.89763911535777 454.21596508133 20.6779495212757 -79.1299932932635 3619919.70212585 T 30 CATAB v2.0f-lin.ifort 2021-Apr-13 10:02:05 2021-Apr-13 10:02
1975-Dec-31 03:10 00:01 Jupiter 1.58572542994501 1.58572460919903 1.58572625069504 3.7690785127182 3.62458875767893 2442777.632231012 1.24649377026606 173.97719249725 28.0890608195721 78.4759181548803 2544346.33205132 T 30 CATAB v2.0f-lin.ifort 2021-Apr-13 10:02:05 2021-Apr-13 10:02
1986-Jan-23 09:14 < 00:01 Jupiter 1.99449595457409 1.99449499606051 1.99449691308825 4.99986860771638 4.91419638652868 2446453.884445939 0.86472738563301 83.7554515174843 30.7676324077444 -62.9418480153967 4077887.27759454 T 30 CATAB v2.0f-lin.ifort 2021-Apr-13 10:02:05 2021-Apr-13 10:02
2036-Oct-30 10:53 00:01 Jupiter 1.98779139163981 1.98779071169381 1.9877920715875 1.20461673941724 0.773871267491613 2464996.953316175 1.15844035813844 790.997788663986 117.950551172338 -23.9767739926519 2180355.20410605 T 30 CATAB v2.0f-lin.ifort 2021-Apr-13 10:02:05 2021-Apr-13 10:02
2046-May-29 20:40 < 00:01 Jupiter 1.57516202179445 1.57516147210297 1.57516257148862 4.3846802604609 4.26027551695572 2468495.361282756 0.92430760353611 161.206431260902 19.5294565607516 -83.9407655264793 3448718.95147008 T 30 CATAB v2.0f-lin.ifort 2021-Apr-13 10:02:05 2021-Apr-13 10:02
2106-Oct-09 15:46 00:03 Jupiter 1.6723844404316 1.6723826873366 1.67238619354656 3.22824397864041 3.0673453131665 2490542.156664741 3.29897939581655 330.633478128738 42.0817743813261 70.5032386968706 1573687.26725344 T 30 CATAB v2.0f-lin.ifort 2021-Apr-13 10:02:05 2021-Apr-13 10:02
2116-Oct-18 02:01 00:03 Jupiter 1.87890980989098 1.87890692929845 1.87891269050038 4.94033848702972 4.84822996104086 2494203.583785553 3.06878130501941 322.750803232995 26.7339212262097 -64.5961506689689 4127242.20218787 T 30 CATAB v2.0f-lin.ifort 2021-Apr-13 10:02:05 2021-Apr-13 10:02
2177-Feb-16 08:42 00:05 Jupiter 1.56842828407684 1.56842755512233 1.56842901313004 4.1512770565658 4.01908078554439 2516239.862620728 4.66539694713733 772.279022518687 20.109718378639 -88.5803200587849 3080286.5707333 T 30 CATAB v2.0f-lin.ifort 2021-Apr-13 10:02:05 2021-Apr-13 10:02

Alternate Designations
 2000 CB48 = 2001 KN41 
Ephemeris | Orbit Diagram | Orbital Elements | Mission Design | Physical Parameters | Discovery Circumstances | Close-Approach Data ]
ABOUT SSD CREDITS/AWARDS PRIVACY/COPYRIGHT GLOSSARY LINKS
FirstGov 2021-Jun-19 17:16 UT
(server date/time)  
NASA Home Page
Site Manager:   Ryan S. Park
Webmaster  Alan B. Chamberlin